[[{"header":{"parameterUnit":"m.s-1","parameterCategory":1,"la1":30.2991,"la2":30.254,"lo1":-89.0895,"lo2":-89.0444,"dy":0.0017,"dx":0.0017,"nx":28,"ny":28,"refTime":"2025-03-23T21:00:00:Z","depth":0,"parameterNumber":2,"parameterNumberName":"U-component_of_WINDS"},"data":[0,0,0,0,0,0,0,0,0,0,0,0,0,0,0,0,0,0,0,0,0,0,0,0,0,0,0,0,0,0,0,0,0,0,0,0,0,0,0,0,0,0,0,0,0,0,0,0,0,0,0,0,0,0,0,0,0,0,-2.2457,-2.2456,0,-2.2395,-2.2394,-2.2393,-2.2354,-2.2353,-2.2353,-2.2353,-2.2291,-2.2289,-2.2288,0,0,0,0,0,0,0,0,0,0,0,0,0,-2.2543,-2.2542,-2.2457,-2.2456,-2.2455,-2.2395,-2.2394,-2.2393,-2.2354,-2.2353,-2.2353,-2.2353,-2.2291,-2.2289,-2.2288,0,0,0,0,0,0,0,0,0,0,0,0,0,-2.2496,-2.2541,-2.2457,-2.2428,-2.2425,-2.2395,-2.2394,-2.2393,-2.2354,-2.2353,-2.2353,-2.2353,-2.2292,-2.229,-2.2287,-2.2281,0,0,-2.2281,-2.228,0,0,0,0,0,0,0,0,-2.2499,-2.2493,-2.2433,-2.243,-2.2427,-2.2382,-2.2401,-2.2356,-2.2354,-2.2381,-2.2353,-2.2353,-2.2321,-2.2317,-2.2306,-2.2278,-2.2276,-2.2281,-2.2279,-2.2278,-2.2278,0,0,0,0,0,0,0,-2.2502,-2.2495,-2.2432,-2.2433,-2.2429,-2.2419,-2.2412,-2.2393,-2.2354,-2.2379,-2.2376,-2.2369,-2.2319,-2.2308,-2.2304,-2.2275,-2.2281,-2.2279,-2.2277,-2.2277,-2.2239,-2.2239,0,0,0,0,0,0,-2.251,-2.2498,-2.2434,-2.2431,-2.2462,-2.2418,-2.241,-2.2396,-2.2354,-2.2347,-2.2369,-2.2367,-2.2312,-2.2307,-2.2302,-2.2291,-2.2278,-2.2276,-2.2275,-2.2239,-2.2239,-2.2239,0,0,0,0,0,0,-2.2512,-2.2504,-2.2437,-2.2463,-2.2454,-2.2417,-2.2402,-2.2395,-2.2384,-2.2347,-2.234,-2.2364,-2.2311,-2.2305,-2.2286,-2.2288,-2.2275,-2.2273,-2.2238,-2.2239,-2.2239,-2.227,0,0,0,0,0,0,-2.2514,-2.2505,-2.2502,-2.2464,-2.2453,-2.2422,-2.2402,-2.2394,-2.238,-2.2377,-2.234,-2.2334,-2.2311,-2.229,-2.2284,-2.2285,-2.2272,-2.2238,-2.2238,-2.2239,-2.2268,-2.2271,-2.2274,0,0,0,0,0,-2.2517,-2.2514,-2.2502,-2.2495,-2.2448,-2.2422,-2.2416,-2.2389,-2.238,-2.2377,-2.2353,-2.2335,-2.2289,-2.2288,-2.2282,-2.2282,-2.2238,-2.2238,-2.2239,-2.2267,-2.2271,-2.2274,0,0,0,0,0,0,-2.2553,-2.2508,-2.2495,-2.2478,-2.2454,-2.2416,-2.2411,-2.2393,-2.2372,-2.237,-2.2337,-2.2329,-2.2314,-2.2296,-2.2296,-2.2274,-2.2261,-2.2261,-2.2285,-2.2288,-2.2291,-2.2295,-2.227,0,0,0,0,0,-2.2559,-2.2542,-2.2503,-2.2493,-2.2481,-2.2448,-2.2436,-2.2417,-2.2391,-2.2381,-2.2356,-2.2332,-2.2312,-2.2299,-2.2279,-2.2266,-2.2258,-2.2263,-2.2266,-2.2268,-2.2268,-2.2259,-2.2261,-2.2241,-2.2241,-2.2241,0,0,-2.2572,-2.2545,-2.2536,-2.2499,-2.2478,-2.2461,-2.244,-2.2423,-2.241,-2.2378,-2.2359,-2.234,-2.2311,-2.2296,-2.2287,-2.228,-2.2271,-2.2269,-2.2271,-2.2269,-2.226,-2.2262,-2.2264,-2.2242,-2.2242,-2.2242,0,0,-2.2585,-2.2563,-2.2551,-2.2531,-2.25,-2.2478,-2.2475,-2.2439,-2.2425,-2.2405,-2.2381,-2.2366,-2.2332,-2.2312,-2.2298,-2.2304,-2.2287,-2.2299,-2.2312,-2.2304,-2.2306,-2.2307,-2.2308,-2.2309,-2.2299,-2.2299,-2.2299,0,-2.2604,-2.2576,-2.2547,-2.2531,-2.2516,-2.2487,-2.2475,-2.2457,-2.2421,-2.2411,-2.2404,-2.2361,-2.2339,-2.2318,-2.232,-2.231,-2.2305,-2.2302,-2.2308,-2.2309,-2.2309,-2.231,-2.2311,-2.23,-2.23,-2.23,-2.23,0,-2.2601,-2.2582,-2.2577,-2.2542,-2.2526,-2.2512,-2.2482,-2.2469,-2.2452,-2.2431,-2.2412,-2.2385,-2.2359,-2.2353,-2.2336,-2.2329,-2.2326,-2.2314,-2.23,-2.2313,-2.2313,-2.2314,-2.2303,-2.2302,-2.2302,-2.2301,0,0,-2.2634,-2.2583,-2.2582,-2.2565,-2.2529,-2.2514,-2.25,-2.2473,-2.2463,-2.244,-2.2426,-2.2399,-2.2387,-2.2371,-2.2352,-2.2345,-2.2351,-2.2334,-2.2333,-2.2337,-2.2342,-2.235,-2.2351,-2.234,-2.234,-2.234,-2.2344,0,-2.264,-2.2611,-2.2585,-2.2565,-2.2547,-2.252,-2.2507,-2.2484,-2.2464,-2.2447,-2.2426,-2.2406,-2.2393,-2.2383,-2.2375,-2.2352,-2.2351,-2.2352,-2.2327,-2.2326,-2.2333,-2.2351,-2.236,-2.2364,-2.2344,-2.2344,-2.2344,0,-2.2644,-2.2621,-2.2599,-2.2564,-2.2556,-2.2544,-2.2518,-2.2502,-2.2475,-2.2462,-2.2444,-2.2424,-2.2407,-2.2397,-2.2374,-2.2375,-2.2363,-2.2351,-2.235,-2.2346,-2.2335,-2.2346,-2.2365,-2.2366,-2.2344,-2.2344,-2.2344,0,-2.2668,-2.2632,-2.2614,-2.2601,-2.2561,-2.2553,-2.2536,-2.2509,-2.2495,-2.2472,-2.2463,-2.2439,-2.2426,-2.2409,-2.2383,-2.2378,-2.2362,-2.235,-2.235,-2.2351,-2.2347,-2.2347,-2.2363,-2.2342,-2.2342,-2.2342,-2.2342,0,-2.2677,-2.2665,-2.2624,-2.2613,-2.2599,-2.257,-2.2556,-2.2537,-2.2513,-2.2498,-2.2474,-2.2461,-2.2428,-2.2411,-2.2391,-2.2375,-2.2369,-2.2358,-2.2352,-2.2359,-2.236,-2.235,-2.2349,-2.2342,-2.2342,-2.2342,-2.2342,0,-2.2702,-2.2674,-2.2653,-2.2616,-2.2606,-2.2597,-2.2566,-2.2555,-2.2534,-2.2515,-2.2509,-2.2477,-2.2456,-2.2429,-2.24,-2.2386,-2.2372,-2.2364,-2.238,-2.2377,-2.2378,-2.2378,-2.2387,-2.2386,-2.2367,-2.2367,-2.2367,0,-2.2708,-2.2698,-2.266,-2.2648,-2.2631,-2.2612,-2.2598,-2.2569,-2.2555,-2.2524,-2.2516,-2.2493,-2.2472,-2.244,-2.2414,-2.2392,-2.2383,-2.2388,-2.2379,-2.2386,-2.2382,-2.2382,-2.238,-2.2389,-2.239,-2.239,-2.239,0,-2.2723,-2.271,-2.269,-2.2664,-2.2647,-2.2626,-2.2604,-2.2596,-2.2562,-2.2548,-2.2525,-2.251,-2.2479,-2.2457,-2.2431,-2.2414,-2.2396,-2.2393,-2.2392,-2.2398,-2.2407,-2.2401,-2.2385,-2.2393,-2.2393,-2.2392,-2.2392,-2.2392,-2.2738,-2.2727,-2.2699,-2.2677,-2.2657,-2.2637,-2.2624,-2.2602,-2.2582,-2.2555,-2.254,-2.2517,-2.2492,-2.2455,-2.2439,-2.2422,-2.2415,-2.2413,-2.2413,-2.2412,-2.2414,-2.2411,-2.2417,-2.2417,-2.2417,-2.2417,-2.2417,0,-2.2751,-2.2731,-2.2711,-2.268,-2.2663,-2.2648,-2.2623,-2.261,-2.259,-2.2567,-2.2548,-2.2522,-2.25,-2.2473,-2.2449,-2.2441,-2.2432,-2.2436,-2.2435,-2.2431,-2.2421,-2.2424,-2.2443,-2.2443,-2.2443,-2.2443,-2.2443,-2.2443,-2.2755,-2.2736,-2.272,-2.2691,-2.2671,-2.2649,-2.2636,-2.2617,-2.2598,-2.2571,-2.2552,-2.2534,-2.251,-2.2484,-2.2463,-2.2456,-2.2448,-2.2453,-2.2444,-2.2435,-2.2432,-2.243,-2.2433,-2.2452,-2.2452,-2.2455,-2.2455,-2.2455]},{"header":{"parameterUnit":"m.s-1","parameterCategory":1,"la1":30.2991,"la2":30.254,"lo1":-89.0895,"lo2":-89.0444,"dy":0.0017,"dx":0.0017,"nx":28,"ny":28,"refTime":"2025-03-23T21:00:00:Z","depth":0,"parameterNumber":3,"parameterNumberName":"V-component_of_WINDS"},"data":[0,0,0,0,0,0,0,0,0,0,0,0,0,0,0,0,0,0,0,0,0,0,0,0,0,0,0,0,0,0,0,0,0,0,0,0,0,0,0,0,0,0,0,0,0,0,0,0,0,0,0,0,0,0,0,0,0,0,4.5,4.5,0,4.4979,4.4978,4.4978,4.4963,4.4963,4.4962,4.4962,4.4937,4.4936,4.4935,0,0,0,0,0,0,0,0,0,0,0,0,0,4.5027,4.5026,4.5,4.5,4.5,4.4979,4.4978,4.4978,4.4963,4.4963,4.4962,4.4962,4.4937,4.4936,4.4935,0,0,0,0,0,0,0,0,0,0,0,0,0,4.5011,4.5026,4.5,4.499,4.4988,4.4979,4.4978,4.4978,4.4963,4.4963,4.4962,4.4962,4.4937,4.4936,4.4935,4.4934,0,0,4.4933,4.4932,0,0,0,0,0,0,0,0,4.5012,4.501,4.4991,4.499,4.4989,4.4973,4.4978,4.4963,4.4963,4.4972,4.4962,4.4962,4.4949,4.4947,4.4943,4.4932,4.4931,4.4933,4.4932,4.4932,4.4931,0,0,0,0,0,0,0,4.5013,4.5011,4.4991,4.4991,4.499,4.4986,4.4983,4.4975,4.4962,4.4971,4.497,4.4968,4.4948,4.4944,4.4942,4.4931,4.4933,4.4932,4.4931,4.4931,4.4922,4.4922,0,0,0,0,0,0,4.5016,4.5012,4.4992,4.4991,4.5,4.4985,4.4982,4.4978,4.4962,4.4959,4.4968,4.4968,4.4946,4.4943,4.4941,4.4941,4.4932,4.4931,4.493,4.4921,4.4922,4.4922,0,0,0,0,0,0,4.5017,4.5015,4.4993,4.5001,4.4998,4.4985,4.498,4.4978,4.4974,4.4959,4.4957,4.4967,4.4945,4.4943,4.4937,4.494,4.4931,4.493,4.4921,4.4922,4.4922,4.4938,0,0,0,0,0,0,4.5018,4.5015,4.5014,4.5001,4.4998,4.4989,4.4981,4.4978,4.4973,4.4972,4.4957,4.4955,4.4945,4.4938,4.4936,4.4938,4.4929,4.4921,4.4921,4.4922,4.4937,4.4939,4.494,0,0,0,0,0,4.5019,4.5018,4.5014,4.5012,4.4997,4.4989,4.4987,4.4977,4.4973,4.4972,4.4964,4.4955,4.494,4.4938,4.4935,4.4937,4.4921,4.4921,4.4922,4.4936,4.4938,4.494,0,0,0,0,0,0,4.5028,4.5015,4.5011,4.5006,4.4999,4.4986,4.4985,4.4979,4.4971,4.497,4.4957,4.4954,4.495,4.4943,4.4941,4.4937,4.4929,4.4929,4.4941,4.4943,4.4945,4.4946,4.4928,0,0,0,0,0,4.503,4.5026,4.5015,4.5011,4.5008,4.4998,4.4994,4.4987,4.4979,4.4975,4.4966,4.4957,4.4951,4.4946,4.4939,4.4936,4.4934,4.4937,4.4938,4.494,4.494,4.4941,4.4943,4.4924,4.4924,4.4924,0,0,4.5033,4.5026,4.5023,4.5013,4.5007,4.5003,4.4995,4.499,4.4987,4.4974,4.4969,4.4962,4.4952,4.4948,4.4946,4.4942,4.4945,4.4941,4.4942,4.4941,4.4942,4.4943,4.4945,4.4924,4.4924,4.4924,0,0,4.5037,4.503,4.5028,4.5023,4.5015,4.5009,4.5009,4.4998,4.4994,4.4989,4.498,4.4976,4.4965,4.4959,4.4954,4.4962,4.4954,4.496,4.4968,4.4969,4.497,4.4972,4.4976,4.4978,4.496,4.496,4.496,0,4.5041,4.5035,4.5027,4.5025,4.5021,4.5012,4.5011,4.5006,4.4995,4.4993,4.4989,4.4978,4.497,4.4967,4.4969,4.4965,4.4965,4.4961,4.4971,4.4972,4.4973,4.4977,4.4979,4.4961,4.4961,4.496,4.496,0,4.5042,4.5039,4.5038,4.5031,4.5028,4.5025,4.5018,4.5015,4.501,4.5005,4.5002,4.4993,4.4986,4.4985,4.4978,4.4981,4.498,4.4974,4.4966,4.4976,4.498,4.4981,4.4962,4.4962,4.4961,4.4961,0,0,4.5047,4.504,4.504,4.5038,4.5031,4.5028,4.5027,4.5022,4.5021,4.5015,4.5014,4.5007,4.5003,4.4998,4.4992,4.4993,4.5002,4.4987,4.4987,4.4991,4.5008,4.5013,4.5015,4.4998,4.4998,4.4998,4.501,0,4.5051,4.5049,4.5044,4.5043,4.5042,4.5035,4.5034,4.503,4.5026,4.5024,4.5018,4.5015,4.5008,4.5006,4.5007,4.5001,4.5005,4.5,4.4997,4.4997,4.5001,4.5016,4.5021,4.5032,4.5011,4.5011,4.5011,0,4.5053,4.5051,4.5051,4.5048,4.5047,4.5046,4.5044,4.5041,4.5037,4.5035,4.5032,4.5026,4.5025,4.5019,4.5019,4.5016,4.5015,4.5012,4.5012,4.5012,4.5005,4.5017,4.5035,4.5037,4.5013,4.5013,4.5013,0,4.506,4.5056,4.5057,4.5056,4.5051,4.5051,4.5049,4.5045,4.5044,4.5042,4.5042,4.5038,4.5037,4.5035,4.5029,4.5025,4.503,4.5023,4.5029,4.5029,4.5029,4.5029,4.5048,4.5028,4.5028,4.5028,4.5028,0,4.5064,4.5064,4.5061,4.5061,4.5062,4.5058,4.5059,4.5056,4.5054,4.5054,4.5048,4.5048,4.504,4.504,4.5036,4.5038,4.5036,4.5035,4.5034,4.5036,4.5036,4.5034,4.5034,4.5028,4.5028,4.5028,4.5028,0,4.507,4.5067,4.5068,4.5066,4.5065,4.5067,4.5064,4.5065,4.5062,4.5063,4.5063,4.5058,4.5058,4.5053,4.505,4.5048,4.5052,4.5049,4.5054,4.5053,4.506,4.506,4.5078,4.5081,4.5059,4.5059,4.5059,0,4.5072,4.5073,4.5073,4.5074,4.5073,4.5074,4.5074,4.507,4.507,4.5069,4.507,4.507,4.507,4.5071,4.5067,4.5066,4.5064,4.5071,4.5063,4.5067,4.5066,4.5066,4.5067,4.5072,4.5072,4.5072,4.5072,0,4.5078,4.5078,4.5079,4.5081,4.5082,4.5082,4.5082,4.5083,4.508,4.5081,4.5082,4.5082,4.5083,4.5084,4.5083,4.5081,4.5077,4.5075,4.5077,4.5079,4.5082,4.5082,4.5059,4.5074,4.5074,4.5074,4.5074,4.5074,4.5083,4.5086,4.5087,4.5089,4.509,4.5091,4.5093,4.5092,4.5094,4.5095,4.5093,4.5096,4.5095,4.5095,4.5094,4.5097,4.5093,4.5095,4.5095,4.5096,4.5098,4.5082,4.5096,4.5096,4.5096,4.5096,4.5096,0,4.509,4.5092,4.5094,4.5097,4.5099,4.5098,4.5099,4.5101,4.5104,4.5105,4.5106,4.511,4.5112,4.511,4.5112,4.5115,4.5113,4.5115,4.5115,4.5115,4.51,4.5099,4.5117,4.5117,4.5117,4.5117,4.5117,4.5117,4.5094,4.5099,4.5099,4.5105,4.5107,4.5111,4.5112,4.5114,4.5116,4.512,4.5123,4.5123,4.5123,4.5126,4.5129,4.5129,4.513,4.5133,4.5132,4.5118,4.5116,4.5114,4.5113,4.5134,4.5134,4.5148,4.5148,4.5148]}]]